When you browse on this site, cookies collect data to enhance your experience and personalize the content and advertising you see.
Visit our Privacy Policy to learn more. By continuing to use the site, you agree to this use of cookies and data.
  • In Österreich
  • Länderverzeichnis
  • Für 7 Tage
  • Wassertemperatur
  • Wetterkarte
  • News
  • Widgets
  • user-avatar
    Anmelden

    Stündliche Wetter Iokogama

    Heute, 20 August, Dienstag

    Zeit Temperatur Niederschläge Wind Luftdruck Luftfeuchtigkeit
    00:00 +29°C° 0.4 mm 2 m/S 755 mmHg 82%
    01:00 +29°C° 0.4 mm 2 m/S 755 mmHg 83%
    02:00 +29°C° 0.4 mm 1 m/S 755 mmHg 83%
    03:00 +29°C° 0 mm 1 m/S 755 mmHg 83%
    04:00 +29°C° 0.2 mm 1 m/S 755 mmHg 84%
    05:00 +29°C° 0.2 mm 1 m/S 755 mmHg 84%
    06:00 +29°C° 0.2 mm 1 m/S 755 mmHg 84%
    07:00 +30°C° 0.2 mm 1 m/S 755 mmHg 79%
    08:00 +31°C° 0.2 mm 2 m/S 755 mmHg 75%
    09:00 +33°C° 0 mm 3 m/S 755 mmHg 70%
    10:00 +34°C° 0.1 mm 3 m/S 755 mmHg 67%
    11:00 +35°C° 0.1 mm 4 m/S 754 mmHg 64%
    12:00 +36°C° 0.1 mm 5 m/S 754 mmHg 61%
    13:00 +35°C° 0 mm 5 m/S 754 mmHg 62%
    14:00 +35°C° 0 mm 6 m/S 753 mmHg 63%
    15:00 +35°C° 0 mm 5 m/S 753 mmHg 63%
    16:00 +34°C° 0.3 mm 5 m/S 753 mmHg 66%
    17:00 +34°C° 0.3 mm 4 m/S 753 mmHg 69%
    18:00 +33°C° 0.3 mm 3 m/S 753 mmHg 72%
    19:00 +33°C° 0.3 mm 3 m/S 753 mmHg 74%
    20:00 +31°C° 0.3 mm 3 m/S 754 mmHg 76%
    21:00 +30°C° 0.3 mm 3 m/S 754 mmHg 79%
    22:00 +30°C° 0.1 mm 3 m/S 754 mmHg 79%
    23:00 +30°C° 0.1 mm 3 m/S 753 mmHg 80%

    Morgen, 21 August, Mittwoch

    Zeit Temperatur Niederschläge Wind Luftdruck Luftfeuchtigkeit
    00:00 +29°C° 0.1 mm 4 m/S 753 mmHg 81%
    01:00 +29°C° 0.1 mm 3 m/S 753 mmHg 82%
    02:00 +29°C° 0.1 mm 3 m/S 753 mmHg 82%
    03:00 +29°C° 0.1 mm 3 m/S 753 mmHg 82%
    04:00 +29°C° 0.5 mm 3 m/S 753 mmHg 82%
    05:00 +29°C° 0.5 mm 2 m/S 753 mmHg 82%
    06:00 +29°C° 0.5 mm 2 m/S 753 mmHg 82%
    07:00 +29°C° 0.5 mm 3 m/S 754 mmHg 81%
    08:00 +29°C° 0.5 mm 3 m/S 754 mmHg 80%
    09:00 +29°C° 0.5 mm 4 m/S 754 mmHg 78%
    10:00 +30°C° 0.4 mm 3 m/S 754 mmHg 73%
    11:00 +31°C° 0.4 mm 3 m/S 753 mmHg 68%
    12:00 +32°C° 0.4 mm 2 m/S 753 mmHg 63%
    13:00 +34°C° 0.5 mm 2 m/S 753 mmHg 63%
    14:00 +34°C° 0.5 mm 2 m/S 753 mmHg 63%
    15:00 +34°C° 0.5 mm 3 m/S 752 mmHg 62%
    16:00 +33°C° 0.3 mm 3 m/S 752 mmHg 67%
    17:00 +31°C° 0.3 mm 3 m/S 752 mmHg 72%
    18:00 +30°C° 0.3 mm 3 m/S 753 mmHg 76%
    19:00 +30°C° 0.1 mm 3 m/S 753 mmHg 78%
    20:00 +30°C° 0.1 mm 3 m/S 753 mmHg 80%
    21:00 +30°C° 0.1 mm 2 m/S 753 mmHg 81%
    22:00 +29°C° 0.1 mm 2 m/S 753 mmHg 82%
    23:00 +29°C° 0.1 mm 2 m/S 753 mmHg 83%

    übermorgen, 22 August, Donnerstag

    Zeit Temperatur Niederschläge Wind Luftdruck Luftfeuchtigkeit
    00:00 +29°C° 0.1 mm 1 m/S 753 mmHg 84%
    01:00 +29°C° 0 mm 2 m/S 753 mmHg 84%
    02:00 +29°C° 0 mm 2 m/S 752 mmHg 84%
    03:00 +28°C° 0 mm 3 m/S 752 mmHg 85%
    04:00 +28°C° 0.1 mm 3 m/S 753 mmHg 84%
    05:00 +28°C° 0.1 mm 3 m/S 753 mmHg 84%
    06:00 +28°C° 0.1 mm 4 m/S 753 mmHg 83%
    07:00 +29°C° 0 mm 3 m/S 753 mmHg 79%
    08:00 +30°C° 0 mm 3 m/S 753 mmHg 75%
    09:00 +31°C° 0 mm 2 m/S 753 mmHg 70%
    10:00 +31°C° 0 mm 2 m/S 753 mmHg 68%
    11:00 +32°C° 0 mm 2 m/S 753 mmHg 66%
    12:00 +32°C° 0 mm 2 m/S 753 mmHg 65%
    13:00 +34°C° 0.1 mm 2 m/S 753 mmHg 63%
    14:00 +34°C° 0.1 mm 2 m/S 752 mmHg 61%
    15:00 +35°C° 0.1 mm 3 m/S 752 mmHg 59%
    16:00 +34°C° 0.3 mm 3 m/S 752 mmHg 64%
    17:00 +33°C° 0.3 mm 3 m/S 752 mmHg 69%
    18:00 +32°C° 0.3 mm 4 m/S 753 mmHg 75%
    19:00 +30°C° 0.9 mm 4 m/S 753 mmHg 77%
    20:00 +30°C° 0.9 mm 4 m/S 753 mmHg 80%
    21:00 +29°C° 0.9 mm 4 m/S 754 mmHg 83%
    22:00 +29°C° 0.6 mm 4 m/S 753 mmHg 84%
    23:00 +29°C° 0.6 mm 3 m/S 753 mmHg 84%

    23 August, Freitag

    Zeit Temperatur Niederschläge Wind Luftdruck Luftfeuchtigkeit
    00:00 +29°C° 0.6 mm 3 m/S 753 mmHg 85%
    01:00 +29°C° 0.1 mm 3 m/S 753 mmHg 85%
    02:00 +28°C° 0.1 mm 3 m/S 752 mmHg 85%
    03:00 +28°C° 0.1 mm 3 m/S 752 mmHg 84%
    04:00 +28°C° 0 mm 3 m/S 752 mmHg 84%
    05:00 +28°C° 0 mm 3 m/S 752 mmHg 84%
    06:00 +28°C° 0 mm 3 m/S 752 mmHg 84%
    07:00 +29°C° 0 mm 3 m/S 752 mmHg 79%
    08:00 +30°C° 0 mm 4 m/S 752 mmHg 75%
    09:00 +32°C° 0 mm 4 m/S 752 mmHg 70%
    10:00 +33°C° 0 mm 5 m/S 752 mmHg 67%
    11:00 +34°C° 0 mm 6 m/S 752 mmHg 63%
    12:00 +35°C° 0 mm 8 m/S 752 mmHg 59%
    13:00 +34°C° 0.3 mm 8 m/S 751 mmHg 62%
    14:00 +33°C° 0.3 mm 8 m/S 751 mmHg 66%
    15:00 +33°C° 0.3 mm 7 m/S 751 mmHg 69%
    16:00 +32°C° 0.7 mm 6 m/S 751 mmHg 70%
    17:00 +30°C° 0.7 mm 4 m/S 751 mmHg 70%
    18:00 +29°C° 0.7 mm 3 m/S 751 mmHg 70%
    19:00 +29°C° 0.8 mm 3 m/S 752 mmHg 71%
    20:00 +28°C° 0.8 mm 3 m/S 752 mmHg 72%
    21:00 +28°C° 0.8 mm 2 m/S 752 mmHg 72%
    22:00 +28°C° 0.4 mm 2 m/S 752 mmHg 74%
    23:00 +28°C° 0.4 mm 2 m/S 752 mmHg 75%

    24 August, Samstag

    Zeit Temperatur Niederschläge Wind Luftdruck Luftfeuchtigkeit
    00:00 +28°C° 0.4 mm 2 m/S 752 mmHg 76%
    01:00 +28°C° 0.1 mm 3 m/S 752 mmHg 77%
    02:00 +28°C° 0.1 mm 5 m/S 752 mmHg 78%
    03:00 +28°C° 0.1 mm 6 m/S 751 mmHg 78%
    04:00 +27°C° 0.6 mm 5 m/S 752 mmHg 79%
    05:00 +27°C° 0.6 mm 4 m/S 752 mmHg 81%
    06:00 +27°C° 0.6 mm 4 m/S 752 mmHg 82%
    07:00 +27°C° 0.5 mm 4 m/S 752 mmHg 82%
    08:00 +27°C° 0.5 mm 4 m/S 752 mmHg 82%
    09:00 +27°C° 0.5 mm 4 m/S 752 mmHg 83%
    10:00 +27°C° 4.3 mm 4 m/S 751 mmHg 84%
    11:00 +26°C° 4.3 mm 4 m/S 751 mmHg 86%
    12:00 +26°C° 4.3 mm 3 m/S 751 mmHg 88%
    13:00 +26°C° 7.8 mm 4 m/S 751 mmHg 90%
    14:00 +26°C° 7.8 mm 4 m/S 750 mmHg 92%
    15:00 +26°C° 7.8 mm 4 m/S 749 mmHg 95%
    16:00 +26°C° 10.5 mm 4 m/S 750 mmHg 93%
    17:00 +25°C° 10.5 mm 3 m/S 750 mmHg 92%
    18:00 +25°C° 10.5 mm 2 m/S 750 mmHg 91%
    19:00 +25°C° 0.8 mm 3 m/S 750 mmHg 90%
    20:00 +25°C° 0.8 mm 3 m/S 750 mmHg 90%
    21:00 +25°C° 0.8 mm 4 m/S 751 mmHg 90%
    22:00 +25°C° 0.6 mm 4 m/S 750 mmHg 89%
    23:00 +25°C° 0.6 mm 3 m/S 750 mmHg 89%

    25 August, Sonntag

    Zeit Temperatur Niederschläge Wind Luftdruck Luftfeuchtigkeit
    00:00 +26°C° 0.6 mm 3 m/S 749 mmHg 89%
    01:00 +25°C° 5.1 mm 4 m/S 749 mmHg 90%
    02:00 +25°C° 5.1 mm 5 m/S 748 mmHg 90%
    03:00 +24°C° 5.1 mm 7 m/S 747 mmHg 91%
    04:00 +24°C° 3.8 mm 7 m/S 748 mmHg 89%
    05:00 +26°C° 3.8 mm 7 m/S 748 mmHg 87%
    06:00 +26°C° 3.8 mm 7 m/S 748 mmHg 84%
    07:00 +27°C° 0 mm 6 m/S 749 mmHg 78%
    08:00 +28°C° 0 mm 4 m/S 749 mmHg 72%
    09:00 +30°C° 0 mm 3 m/S 750 mmHg 66%
    10:00 +30°C° 0.3 mm 2 m/S 750 mmHg 66%
    11:00 +30°C° 0.3 mm 2 m/S 750 mmHg 66%
    12:00 +30°C° 0.3 mm 2 m/S 750 mmHg 66%
    13:00 +30°C° 0.3 mm 3 m/S 750 mmHg 68%
    14:00 +30°C° 0.3 mm 4 m/S 750 mmHg 70%
    15:00 +30°C° 0.3 mm 5 m/S 750 mmHg 72%
    16:00 +29°C° 0.6 mm 5 m/S 751 mmHg 74%
    17:00 +29°C° 0.6 mm 5 m/S 751 mmHg 77%
    18:00 +28°C° 0.6 mm 5 m/S 751 mmHg 79%
    19:00 +28°C° 0.3 mm 4 m/S 751 mmHg 81%
    20:00 +28°C° 0.3 mm 4 m/S 752 mmHg 82%
    21:00 +27°C° 0.3 mm 3 m/S 752 mmHg 83%
    22:00 +27°C° 0.3 mm 3 m/S 752 mmHg 83%
    23:00 +27°C° 0.3 mm 2 m/S 752 mmHg 84%
    Mehr zeigen